This is the latest recevied weather packets stored in our database for station/object K7LDN-13. If no packets are shown the sender has not sent any weather packets the latest 10 day(s).
| Time | Temp. | Humidity | Pressure | Rain* | Wind** | Luminosity | Snow |
|---|---|---|---|---|---|---|---|
| 1778037732 | 11.11° C | 60% | 1012.7 hPa | 0 mm | - | 0 W/m² | - |
| 1778037429 | 11.67° C | 60% | 1012.4 hPa | 0 mm | - | 0 W/m² | - |
| 1778037127 | 11.67° C | 59% | 1012.4 hPa | 0 mm | - | 0 W/m² | - |
| 1778036825 | 11.67° C | 58% | 1012.8 hPa | 0 mm | - | 0 W/m² | - |
| 1778036522 | 11.67° C | 58% | 1012.6 hPa | 0 mm | - | 0 W/m² | - |
| 1778036218 | 11.67° C | 56% | 1012.5 hPa | 0 mm | - | 0 W/m² | - |
| 1778035914 | 12.22° C | 55% | 1012.6 hPa | 0 mm | - | 0 W/m² | - |
| 1778035612 | 12.22° C | 55% | 1012.4 hPa | 0 mm | - | 0 W/m² | - |
| 1778035308 | 12.22° C | 55% | 1012.5 hPa | 0 mm | - | 1 W/m² | - |
| 1778035004 | 12.22° C | 54% | 1012.3 hPa | 0 mm | - | 1 W/m² | - |
| 1778034702 | 12.22° C | 54% | 1012.2 hPa | 0 mm | - | 3 W/m² | - |
| 1778034399 | 12.22° C | 54% | 1012.5 hPa | 0 mm | - | 2 W/m² | - |
| 1778034096 | 12.78° C | 54% | 1012.2 hPa | 0 mm | - | 5 W/m² | - |
| 1778033794 | 12.78° C | 53% | 1012 hPa | 0 mm | - | 11 W/m² | - |
| 1778033491 | 12.78° C | 52% | 1011.9 hPa | 0 mm | - | 14 W/m² | - |
| 1778033188 | 13.33° C | 51% | 1012 hPa | 0 mm | - | 18 W/m² | - |
| 1778032886 | 13.33° C | 51% | 1012 hPa | 0 mm | - | 24 W/m² | - |
| 1778032583 | 13.89° C | 50% | 1012 hPa | 0 mm | - | 29 W/m² | - |
| 1778032280 | 13.89° C | 49% | 1012.2 hPa | 0 mm | - | 34 W/m² | - |
| 1778031978 | 13.89° C | 49% | 1011.9 hPa | 0 mm | - | 39 W/m² | - |
| 1778031673 | 14.44° C | 48% | 1012.2 hPa | 0 mm | - | 46 W/m² | - |
| 1778031372 | 14.44° C | 47% | 1012.2 hPa | 0 mm | - | 54 W/m² | - |
| 1778031068 | 14.44° C | 47% | 1012 hPa | 0 mm | - | 60 W/m² | - |
| 1778030764 | 15° C | 47% | 1012 hPa | 0 mm | - | 69 W/m² | - |
| 1778030460 | 15° C | 47% | 1011.9 hPa | 0 mm | - | 80 W/m² | - |
* Rain latest hour (hover to see other rain measurements)
** Current wind speed in m/s (hover to see current wind gust speed)